QPF
0.02 0.03 0.02 0.02 0.01 0.01 0.01 0.00 0.01 0.01 0.01 0.01 0.01 0.01 0.01 0.01 0.01 0.01 0.01 0.01 0.02 0.03 0.04 0.04 0.02 0.02 0.03 0.03 0.02 0.03 0.02 0.02 0.04 0.04 0.04 0.05 0.06 0.06 0.05 0.05 0.04 0.02 0.05
0.01 0.01 0.02 0.02 0.01 0.01 0.00 0.00 0.00 0.00 0.00 0.00 0.00 0.01 0.01 0.01 0.01 0.01 0.01 0.02 0.03 0.03 0.03 0.02 0.02 0.02 0.02 0.02 0.01 0.01 0.02 0.02 0.05 0.05 0.05 0.05 0.05 0.05 0.04 0.04 0.04 0.05 0.06
0.01 0.01 0.01 0.01 0.01 0.01 0.00 0.00 0.00 0.00 0.00 0.00 0.00 0.01 0.01 0.01 0.02 0.02 0.02 0.03 0.03 0.03 0.03 0.02 0.02 0.01 0.01 0.01 0.02 0.01 0.01 0.03 0.06 0.05 0.03 0.02 0.03 0.04 0.04 0.04 0.05 0.07 0.07
0.00 0.00 0.00 0.01 0.01 0.01 0.01 0.01 0.01 0.01 0.01 0.00 0.00 0.01 0.01 0.01 0.02 0.03 0.03 0.02 0.02 0.02 0.02 0.02 0.01 0.01 0.01 0.01 0.01 0.02 0.03 0.03 0.04 0.02 0.01 0.01 0.01 0.04 0.04 0.04 0.05 0.05 0.05
0.00 0.00 0.01 0.01 0.01 0.01 0.01 0.01 0.01 0.01 0.01 0.00 0.00 0.01 0.01 0.02 0.03 0.03 0.02 0.02 0.02 0.01 0.02 0.01 0.01 0.01 0.02 0.02 0.02 0.02 0.03 0.03 0.01 0.00 0.00 0.00 0.01 0.03 0.05 0.04 0.04 0.03 0.03
0.01 0.00 0.01 0.01 0.01 0.01 0.01 0.01 0.01 0.01 0.01 0.00 0.00 0.01 0.02 0.02 0.02 0.02 0.02 0.02 0.02 0.01 0.01 0.01 0.02 0.02 0.03 0.02 0.03 0.03 0.03 0.02 0.00 0.00 0.00 0.00 0.01 0.02 0.04 0.04 0.03 0.03 0.03
0.02 0.01 0.01 0.01 0.01 0.01 0.01 0.01 0.01 0.01 0.01 0.01 0.01 0.01 0.02 0.01 0.02 0.02 0.02 0.02 0.01 0.01 0.01 0.01 0.02 0.03 0.03 0.03 0.04 0.05 0.04 0.01 0.00 0.00 0.01 0.01 0.01 0.02 0.05 0.05 0.03 0.03 0.04
0.04 0.03 0.03 0.03 0.01 0.01 0.01 0.00 0.01 0.01 0.01 0.01 0.01 0.01 0.01 0.01 0.02 0.02 0.01 0.02 0.02 0.01 0.02 0.02 0.02 0.04 0.04 0.04 0.05 0.07 0.05 0.01 0.00 0.00 0.00 0.01 0.02 0.03 0.05 0.03 0.03 0.03 0.02
0.03 0.03 0.03 0.02 0.01 0.01 0.00 0.01 0.01 0.01 0.01 0.01 0.01 0.01 0.01 0.02 0.02 0.01 0.02 0.02 0.02 0.01 0.02 0.03 0.02 0.03 0.03 0.04 0.06 0.06 0.04 0.02 0.01 0.00 0.01 0.01 0.01 0.02 0.03 0.01 0.02 0.03 0.02
0.02 0.03 0.04 0.02 0.01 0.01 0.01 0.01 0.01 0.01 0.01 0.01 0.01 0.01 0.02 0.03 0.02 0.02 0.02 0.02 0.02 0.01 0.02 0.02 0.02 0.03 0.03 0.04 0.06 0.07 0.06 0.02 0.00 0.00 0.01 0.00 0.01 0.02 0.02 0.01 0.02 0.02 0.02
0.01 0.02 0.03 0.02 0.01 0.01 0.01 0.01 0.02 0.02 0.01 0.01 0.01 0.02 0.02 0.02 0.02 0.01 0.01 0.03 0.02 0.01 0.02 0.03 0.03 0.03 0.03 0.04 0.06 0.08 0.05 0.01 0.01 0.01 0.00 0.00 0.01 0.02 0.02 0.01 0.02 0.02 0.02
0.01 0.01 0.01 0.01 0.01 0.00 0.00 0.01 0.01 0.02 0.01 0.01 0.01 0.01 0.01 0.01 0.01 0.01 0.02 0.04 0.03 0.02 0.03 0.02 0.02 0.02 0.01 0.02 0.06 0.05 0.02 0.02 0.01 0.00 0.00 0.01 0.01 0.01 0.01 0.01 0.01 0.01 0.02
0.01 0.00 0.00 0.00 0.01 0.01 0.00 0.00 0.00 0.00 0.01 0.01 0.01 0.01 0.00 0.01 0.01 0.01 0.02 0.03 0.03 0.03 0.02 0.01 0.01 0.01 0.01 0.01 0.02 0.02 0.02 0.02 0.01 0.01 0.01 0.01 0.01 0.01 0.01 0.01 0.01 0.01 0.01
0.00 0.00 0.01 0.00 0.00 0.01 0.00 0.00 0.00 0.00 0.00 0.00 0.01 0.01 0.01 0.01 0.01 0.02 0.02 0.02 0.02 0.01 0.01 0.01 0.01 0.01 0.01 0.02 0.03 0.03 0.02 0.02 0.02 0.01 0.01 0.02 0.01 0.01 0.01 0.01 0.01 0.01 0.01
0.00 0.00 0.01 0.01 0.01 0.01 0.01 0.02 0.02 0.01 0.01 0.01 0.01 0.02 0.02 0.02 0.02 0.02 0.02 0.01 0.01 0.01 0.01 0.01 0.01 0.02 0.01 0.02 0.02 0.02 0.02 0.01 0.02 0.01 0.02 0.02 0.02 0.02 0.02 0.01 0.02 0.01 0.01
0.01 0.01 0.02 0.03 0.04 0.03 0.04 0.04 0.02 0.01 0.01 0.01 0.02 0.02 0.02 0.02 0.03 0.03 0.03 0.01 0.01 0.01 0.01 0.01 0.01 0.01 0.01 0.02 0.03 0.03 0.02 0.02 0.02 0.01 0.01 0.03 0.04 0.02 0.03 0.03 0.02 0.01 0.01
0.03 0.02 0.05 0.06 0.06 0.05 0.05 0.05 0.03 0.02 0.01 0.02 0.03 0.02 0.03 0.03 0.03 0.03 0.03 0.02 0.02 0.01 0.01 0.01 0.02 0.02 0.02 0.03 0.04 0.03 0.02 0.02 0.01 0.00 0.01 0.01 0.02 0.02 0.03 0.04 0.04 0.04 0.03
0.05 0.06 0.08 0.07 0.10 0.09 0.06 0.05 0.04 0.05 0.04 0.05 0.05 0.04 0.04 0.03 0.03 0.03 0.02 0.02 0.03 0.03 0.02 0.02 0.02 0.02 0.02 0.03 0.03 0.03 0.03 0.02 0.01 0.01 0.01 0.01 0.01 0.01 0.02 0.04 0.04 0.05 0.05
0.09 0.11 0.12 0.13 0.13 0.09 0.08 0.09 0.09 0.10 0.09 0.08 0.08 0.06 0.04 0.04 0.03 0.04 0.03 0.03 0.03 0.03 0.03 0.01 0.02 0.03 0.04 0.04 0.04 0.04 0.05 0.05 0.02 0.01 0.01 0.00 0.01 0.01 0.01 0.02 0.04 0.04 0.04
0.16 0.16 0.20 0.17 0.15 0.11 0.10 0.10 0.10 0.11 0.10 0.09 0.08 0.07 0.06 0.06 0.04 0.04 0.04 0.05 0.04 0.03 0.03 0.02 0.01 0.02 0.04 0.04 0.06 0.06 0.06 0.04 0.02 0.01 0.01 0.01 0.02 0.01 0.00 0.00 0.01 0.02 0.04
0.14 0.14 0.13 0.14 0.15 0.13 0.09 0.07 0.09 0.09 0.08 0.08 0.08 0.08 0.06 0.06 0.06 0.05 0.05 0.05 0.03 0.03 0.02 0.03 0.03 0.03 0.05 0.04 0.06 0.05 0.04 0.03 0.02 0.02 0.01 0.02 0.02 0.01 0.01 0.01 0.01 0.01 0.01
0.08 0.09 0.12 0.13 0.14 0.12 0.12 0.11 0.11 0.10 0.09 0.10 0.10 0.09 0.06 0.06 0.06 0.05 0.05 0.05 0.03 0.02 0.03 0.03 0.03 0.03 0.04 0.04 0.04 0.04 0.03 0.01 0.01 0.02 0.01 0.02 0.02 0.02 0.01 0.02 0.01 0.01 0.00
0.10 0.11 0.10 0.12 0.14 0.13 0.14 0.14 0.11 0.10 0.10 0.08 0.08 0.09 0.08 0.07 0.06 0.05 0.04 0.05 0.04 0.03 0.03 0.03 0.04 0.04 0.04 0.03 0.03 0.02 0.01 0.02 0.01 0.01 0.01 0.02 0.02 0.01 0.01 0.01 0.01 0.01 0.01
0.09 0.11 0.11 0.11 0.13 0.13 0.12 0.13 0.09 0.06 0.04 0.04 0.07 0.09 0.09 0.08 0.07 0.07 0.07 0.06 0.05 0.04 0.04 0.04 0.04 0.04 0.04 0.04 0.03 0.01 0.01 0.02 0.01 0.00 0.00 0.01 0.01 0.01 0.02 0.02 0.02 0.02 0.01
0.08 0.11 0.13 0.12 0.12 0.11 0.10 0.10 0.11 0.09 0.07 0.07 0.09 0.11 0.10 0.10 0.08 0.07 0.07 0.08 0.07 0.06 0.05 0.05 0.05 0.04 0.03 0.04 0.04 0.03 0.03 0.02 0.01 0.01 0.00 0.01 0.01 0.01 0.02 0.02 0.02 0.02 0.02
0.07 0.09 0.09 0.08 0.09 0.10 0.10 0.10 0.09 0.08 0.07 0.05 0.05 0.08 0.09 0.11 0.10 0.08 0.08 0.10 0.10 0.08 0.06 0.05 0.05 0.04 0.04 0.04 0.04 0.03 0.03 0.02 0.02 0.02 0.01 0.00 0.01 0.01 0.01 0.01 0.01 0.02 0.02
MSLP
1013.10 1012.79 1012.68 1012.78 1013.04 1013.39 1013.74 1014.02 1014.18 1014.22 1014.17 1014.06 1013.97 1013.93 1013.97 1014.08 1014.24 1014.43 1014.60 1014.73 1014.83 1014.89 1014.94 1015.00 1015.09 1015.21 1015.36 1015.53 1015.71 1015.88 1016.03 1016.16 1016.28 1016.40 1016.52 1016.66 1016.81 1016.98 1017.16 1017.35 1017.55 1017.76 1017.98
1012.93 1012.69 1012.64 1012.79 1013.10 1013.49 1013.88 1014.18 1014.37 1014.44 1014.41 1014.34 1014.29 1014.29 1014.37 1014.52 1014.71 1014.90 1015.08 1015.21 1015.30 1015.35 1015.39 1015.45 1015.53 1015.66 1015.81 1015.98 1016.16 1016.32 1016.46 1016.59 1016.71 1016.83 1016.96 1017.10 1017.26 1017.42 1017.60 1017.79 1017.98 1018.18 1018.39
1012.76 1012.57 1012.57 1012.77 1013.12 1013.54 1013.96 1014.30 1014.53 1014.63 1014.65 1014.63 1014.62 1014.66 1014.77 1014.94 1015.14 1015.33 1015.50 1015.61 1015.68 1015.73 1015.77 1015.82 1015.91 1016.04 1016.20 1016.38 1016.55 1016.72 1016.87 1017.00 1017.13 1017.26 1017.40 1017.55 1017.71 1017.88 1018.05 1018.22 1018.39 1018.57 1018.77
1012.62 1012.48 1012.53 1012.76 1013.14 1013.60 1014.04 1014.41 1014.68 1014.82 1014.89 1014.91 1014.95 1015.02 1015.15 1015.32 1015.50 1015.68 1015.82 1015.91 1015.97 1016.01 1016.06 1016.13 1016.24 1016.38 1016.56 1016.74 1016.92 1017.09 1017.25 1017.39 1017.53 1017.68 1017.84 1018.00 1018.16 1018.32 1018.48 1018.63 1018.78 1018.94 1019.12
1012.58 1012.49 1012.58 1012.85 1013.24 1013.71 1014.16 1014.55 1014.83 1015.01 1015.11 1015.17 1015.23 1015.33 1015.46 1015.62 1015.78 1015.93 1016.05 1016.13 1016.19 1016.24 1016.30 1016.40 1016.54 1016.71 1016.90 1017.10 1017.29 1017.47 1017.63 1017.79 1017.95 1018.11 1018.28 1018.45 1018.62 1018.77 1018.90 1019.02 1019.15 1019.29 1019.46
1012.67 1012.64 1012.76 1013.05 1013.45 1013.90 1014.35 1014.72 1015.00 1015.19 1015.31 1015.39 1015.47 1015.57 1015.70 1015.85 1016.00 1016.13 1016.23 1016.30 1016.37 1016.44 1016.54 1016.68 1016.85 1017.05 1017.27 1017.48 1017.68 1017.86 1018.03 1018.19 1018.36 1018.54 1018.72 1018.90 1019.06 1019.19 1019.31 1019.40 1019.50 1019.62 1019.78
1012.89 1012.92 1013.08 1013.37 1013.76 1014.18 1014.59 1014.93 1015.18 1015.35 1015.47 1015.56 1015.65 1015.77 1015.90 1016.04 1016.18 1016.30 1016.40 1016.48 1016.56 1016.67 1016.81 1016.99 1017.20 1017.44 1017.67 1017.89 1018.09 1018.27 1018.44 1018.60 1018.78 1018.96 1019.15 1019.33 1019.48 1019.60 1019.69 1019.77 1019.84 1019.94 1020.09
1013.23 1013.31 1013.50 1013.79 1014.15 1014.53 1014.87 1015.15 1015.36 1015.50 1015.60 1015.70 1015.80 1015.93 1016.08 1016.23 1016.37 1016.50 1016.60 1016.70 1016.81 1016.94 1017.12 1017.34 1017.59 1017.84 1018.09 1018.32 1018.51 1018.68 1018.84 1019.00 1019.17 1019.35 1019.54 1019.72 1019.87 1019.98 1020.05 1020.11 1020.16 1020.24 1020.38
1013.62 1013.75 1013.97 1014.26 1014.58 1014.89 1015.16 1015.37 1015.52 1015.62 1015.72 1015.82 1015.95 1016.10 1016.28 1016.45 1016.61 1016.75 1016.86 1016.98 1017.10 1017.26 1017.46 1017.70 1017.97 1018.24 1018.49 1018.72 1018.90 1019.05 1019.20 1019.34 1019.51 1019.69 1019.88 1020.06 1020.21 1020.32 1020.38 1020.42 1020.46 1020.53 1020.65
1014.00 1014.18 1014.43 1014.71 1014.99 1015.24 1015.44 1015.57 1015.67 1015.74 1015.82 1015.94 1016.10 1016.30 1016.52 1016.73 1016.91 1017.06 1017.19 1017.31 1017.44 1017.60 1017.80 1018.05 1018.32 1018.59 1018.84 1019.05 1019.22 1019.37 1019.50 1019.64 1019.79 1019.97 1020.16 1020.34 1020.50 1020.61 1020.68 1020.71 1020.74 1020.80 1020.91
1014.30 1014.54 1014.82 1015.09 1015.34 1015.54 1015.67 1015.75 1015.80 1015.85 1015.94 1016.09 1016.29 1016.54 1016.80 1017.05 1017.26 1017.43 1017.55 1017.66 1017.77 1017.92 1018.10 1018.33 1018.59 1018.85 1019.10 1019.30 1019.47 1019.61 1019.73 1019.86 1020.02 1020.19 1020.39 1020.57 1020.74 1020.86 1020.94 1020.98 1021.01 1021.06 1021.16
1014.48 1014.78 1015.09 1015.37 1015.60 1015.76 1015.85 1015.89 1015.92 1015.97 1016.08 1016.26 1016.51 1016.81 1017.12 1017.40 1017.63 1017.80 1017.92 1018.00 1018.08 1018.19 1018.35 1018.55 1018.78 1019.03 1019.27 1019.48 1019.65 1019.79 1019.92 1020.05 1020.20 1020.37 1020.56 1020.76 1020.93 1021.07 1021.16 1021.22 1021.26 1021.31 1021.40
1014.52 1014.87 1015.21 1015.51 1015.74 1015.89 1015.97 1016.00 1016.03 1016.09 1016.23 1016.45 1016.74 1017.08 1017.43 1017.74 1017.98 1018.15 1018.25 1018.30 1018.35 1018.42 1018.53 1018.70 1018.91 1019.15 1019.39 1019.60 1019.79 1019.94 1020.07 1020.21 1020.36 1020.53 1020.71 1020.91 1021.09 1021.24 1021.35 1021.43 1021.49 1021.55 1021.63
1014.41 1014.81 1015.19 1015.52 1015.77 1015.93 1016.02 1016.07 1016.13 1016.22 1016.39 1016.64 1016.96 1017.33 1017.70 1018.02 1018.27 1018.43 1018.51 1018.55 1018.56 1018.60 1018.68 1018.82 1019.02 1019.25 1019.49 1019.72 1019.93 1020.10 1020.25 1020.38 1020.52 1020.68 1020.85 1021.03 1021.21 1021.37 1021.50 1021.60 1021.68 1021.76 1021.84
1014.18 1014.61 1015.03 1015.39 1015.68 1015.88 1016.02 1016.11 1016.21 1016.34 1016.54 1016.81 1017.15 1017.52 1017.88 1018.21 1018.46 1018.62 1018.70 1018.72 1018.73 1018.75 1018.82 1018.95 1019.14 1019.38 1019.63 1019.88 1020.11 1020.30 1020.46 1020.59 1020.72 1020.85 1020.99 1021.14 1021.30 1021.46 1021.60 1021.72 1021.83 1021.92 1022.02
1013.86 1014.31 1014.75 1015.15 1015.48 1015.75 1015.96 1016.12 1016.27 1016.44 1016.66 1016.93 1017.25 1017.61 1017.96 1018.27 1018.52 1018.69 1018.79 1018.83 1018.86 1018.90 1018.98 1019.12 1019.32 1019.56 1019.83 1020.10 1020.34 1020.55 1020.71 1020.84 1020.94 1021.03 1021.13 1021.24 1021.36 1021.50 1021.64 1021.77 1021.90 1022.03 1022.15
1013.49 1013.93 1014.38 1014.82 1015.21 1015.55 1015.84 1016.08 1016.29 1016.50 1016.73 1016.98 1017.27 1017.59 1017.90 1018.20 1018.45 1018.64 1018.78 1018.87 1018.95 1019.04 1019.16 1019.32 1019.54 1019.80 1020.09 1020.37 1020.63 1020.84 1020.99 1021.10 1021.17 1021.22 1021.27 1021.32 1021.40 1021.50 1021.62 1021.76 1021.91 1022.06 1022.20
1013.11 1013.53 1013.97 1014.43 1014.88 1015.30 1015.68 1016.00 1016.28 1016.52 1016.74 1016.96 1017.20 1017.46 1017.73 1018.00 1018.25 1018.48 1018.68 1018.85 1019.00 1019.16 1019.33 1019.54 1019.79 1020.06 1020.36 1020.65 1020.91 1021.12 1021.27 1021.36 1021.40 1021.40 1021.39 1021.39 1021.42 1021.47 1021.57 1021.69 1021.85 1022.01 1022.18
1012.77 1013.13 1013.55 1014.02 1014.52 1015.01 1015.48 1015.88 1016.22 1016.48 1016.69 1016.88 1017.05 1017.24 1017.45 1017.69 1017.95 1018.22 1018.49 1018.75 1019.00 1019.24 1019.48 1019.73 1020.00 1020.29 1020.59 1020.87 1021.13 1021.34 1021.49 1021.57 1021.59 1021.56 1021.51 1021.45 1021.42 1021.43 1021.48 1021.58 1021.72 1021.89 1022.07
1012.47 1012.77 1013.15 1013.62 1014.15 1014.71 1015.24 1015.72 1016.11 1016.40 1016.59 1016.73 1016.83 1016.95 1017.10 1017.31 1017.58 1017.89 1018.23 1018.58 1018.92 1019.25 1019.55 1019.84 1020.13 1020.42 1020.71 1020.99 1021.25 1021.47 1021.62 1021.71 1021.73 1021.68 1021.60 1021.51 1021.42 1021.38 1021.39 1021.45 1021.57 1021.72 1021.90
1012.24 1012.46 1012.79 1013.25 1013.79 1014.39 1014.99 1015.52 1015.95 1016.26 1016.44 1016.53 1016.57 1016.62 1016.72 1016.90 1017.17 1017.51 1017.92 1018.35 1018.77 1019.16 1019.52 1019.84 1020.13 1020.42 1020.70 1020.97 1021.23 1021.46 1021.63 1021.75 1021.79 1021.75 1021.67 1021.55 1021.43 1021.34 1021.30 1021.31 1021.39 1021.51 1021.67
1012.08 1012.23 1012.51 1012.93 1013.46 1014.08 1014.71 1015.28 1015.75 1016.06 1016.24 1016.29 1016.29 1016.28 1016.33 1016.48 1016.75 1017.12 1017.57 1018.05 1018.53 1018.97 1019.36 1019.70 1019.99 1020.26 1020.52 1020.79 1021.05 1021.31 1021.52 1021.68 1021.76 1021.77 1021.70 1021.58 1021.44 1021.31 1021.22 1021.18 1021.20 1021.28 1021.40
1012.00 1012.09 1012.30 1012.67 1013.18 1013.78 1014.42 1015.00 1015.48 1015.81 1015.98 1016.02 1015.98 1015.94 1015.96 1016.09 1016.35 1016.73 1017.20 1017.72 1018.23 1018.70 1019.10 1019.43 1019.71 1019.96 1020.21 1020.47 1020.75 1021.03 1021.30 1021.51 1021.66 1021.71 1021.68 1021.58 1021.43 1021.27 1021.13 1021.04 1021.00 1021.03 1021.10
1011.98 1012.03 1012.18 1012.49 1012.94 1013.50 1014.10 1014.68 1015.16 1015.49 1015.67 1015.70 1015.66 1015.61 1015.61 1015.73 1015.98 1016.36 1016.84 1017.37 1017.89 1018.36 1018.76 1019.08 1019.34 1019.57 1019.80 1020.06 1020.35 1020.67 1020.98 1021.26 1021.47 1021.59 1021.60 1021.53 1021.38 1021.21 1021.03 1020.88 1020.78 1020.75 1020.78
1012.04 1012.05 1012.14 1012.37 1012.74 1013.23 1013.78 1014.32 1014.78 1015.12 1015.30 1015.35 1015.32 1015.27 1015.28 1015.39 1015.64 1016.02 1016.49 1017.01 1017.52 1017.98 1018.37 1018.67 1018.91 1019.12 1019.35 1019.61 1019.92 1020.26 1020.62 1020.95 1021.22 1021.39 1021.45 1021.40 1021.27 1021.08 1020.87 1020.68 1020.53 1020.44 1020.42
1012.17 1012.15 1012.18 1012.32 1012.59 1012.98 1013.45 1013.93 1014.36 1014.69 1014.88 1014.96 1014.96 1014.93 1014.96 1015.08 1015.32 1015.69 1016.15 1016.65 1017.15 1017.59 1017.96 1018.25 1018.48 1018.68 1018.90 1019.16 1019.48 1019.84 1020.23 1020.60 1020.91 1021.12 1021.21 1021.19 1021.07 1020.87 1020.65 1020.42 1020.24 1020.11 1020.05
Thickness
5774 5776 5775 5773 5772 5772 5771 5771 5771 5771 5770 5769 5769 5768 5767 5766 5765 5764 5763 5762 5761 5760 5760 5758 5757 5756 5754 5753 5752 5751 5750 5749 5747 5746 5745 5743 5742 5741 5740 5739 5737 5736 5734
5779 5777 5775 5773 5771 5770 5769 5769 5769 5768 5768 5768 5767 5766 5765 5764 5763 5762 5761 5761 5760 5758 5757 5755 5754 5753 5752 5751 5749 5748 5747 5746 5745 5744 5742 5741 5740 5739 5737 5736 5735 5733 5732
5780 5777 5774 5772 5770 5768 5767 5767 5767 5766 5766 5766 5765 5764 5764 5763 5761 5760 5759 5758 5757 5756 5754 5753 5752 5750 5749 5748 5747 5745 5744 5743 5742 5741 5740 5738 5737 5736 5735 5733 5732 5731 5729
5779 5776 5773 5771 5769 5767 5766 5765 5765 5765 5764 5764 5763 5762 5762 5761 5759 5758 5757 5756 5755 5754 5752 5750 5749 5748 5746 5745 5744 5743 5742 5741 5740 5738 5737 5736 5735 5734 5732 5731 5730 5728 5727
5778 5775 5772 5770 5768 5766 5765 5764 5763 5762 5762 5761 5761 5760 5759 5758 5758 5756 5755 5754 5753 5751 5750 5748 5747 5745 5744 5743 5741 5740 5739 5738 5737 5736 5734 5733 5732 5731 5730 5729 5728 5726 5725
5776 5773 5771 5768 5766 5765 5763 5762 5761 5760 5760 5759 5758 5758 5757 5757 5755 5754 5753 5752 5750 5748 5747 5746 5744 5743 5742 5741 5740 5739 5737 5736 5734 5733 5732 5731 5730 5729 5728 5727 5725 5724 5723
5774 5771 5769 5767 5765 5763 5762 5761 5759 5759 5758 5757 5756 5756 5755 5754 5753 5752 5751 5749 5748 5746 5745 5744 5742 5741 5740 5739 5738 5737 5735 5734 5732 5731 5730 5729 5728 5726 5725 5724 5723 5722 5720
5772 5770 5768 5765 5763 5762 5761 5759 5758 5757 5756 5756 5755 5754 5753 5752 5751 5750 5749 5747 5746 5744 5743 5741 5740 5739 5738 5737 5736 5735 5734 5732 5730 5729 5728 5727 5726 5725 5723 5722 5721 5720 5718
5771 5768 5766 5764 5762 5761 5759 5758 5757 5756 5755 5754 5753 5752 5751 5750 5749 5748 5747 5745 5744 5742 5741 5739 5738 5738 5737 5736 5735 5733 5732 5730 5728 5727 5726 5725 5724 5723 5721 5720 5719 5718 5717
5768 5766 5764 5763 5761 5759 5758 5757 5756 5754 5753 5752 5751 5750 5749 5748 5747 5746 5745 5743 5742 5740 5739 5738 5737 5736 5735 5735 5733 5732 5730 5729 5727 5726 5725 5724 5722 5721 5720 5719 5717 5716 5715
5765 5765 5763 5762 5760 5758 5756 5755 5754 5753 5751 5750 5749 5748 5747 5746 5745 5744 5743 5742 5741 5739 5738 5737 5736 5735 5734 5734 5732 5731 5729 5727 5726 5724 5723 5722 5721 5720 5719 5717 5716 5715 5714
5764 5763 5763 5761 5759 5757 5755 5754 5752 5751 5749 5748 5747 5746 5745 5744 5743 5742 5742 5741 5740 5738 5737 5736 5734 5734 5733 5732 5731 5730 5728 5726 5724 5723 5722 5721 5720 5718 5717 5716 5715 5714 5712
5766 5764 5762 5761 5759 5756 5754 5753 5751 5749 5747 5746 5745 5744 5743 5742 5741 5740 5740 5739 5739 5737 5736 5734 5733 5733 5732 5731 5730 5729 5727 5725 5724 5722 5721 5720 5719 5717 5716 5715 5714 5713 5712
5766 5764 5762 5761 5758 5756 5754 5752 5749 5747 5746 5745 5744 5743 5742 5740 5739 5739 5738 5738 5737 5736 5735 5734 5732 5732 5731 5731 5730 5728 5727 5725 5723 5722 5721 5719 5718 5717 5715 5714 5713 5712 5711
5766 5764 5763 5760 5758 5756 5753 5751 5748 5747 5745 5744 5742 5741 5741 5740 5738 5738 5737 5737 5736 5735 5734 5733 5732 5732 5731 5730 5729 5728 5727 5725 5723 5722 5720 5719 5718 5716 5715 5714 5713 5712 5710
5769 5766 5763 5760 5757 5755 5753 5750 5749 5746 5745 5743 5742 5740 5740 5739 5738 5737 5736 5736 5735 5735 5734 5733 5732 5732 5731 5730 5729 5728 5727 5725 5724 5722 5720 5719 5718 5716 5715 5714 5713 5712 5710
5772 5768 5764 5761 5758 5754 5752 5750 5748 5746 5744 5743 5741 5740 5739 5738 5738 5737 5736 5735 5735 5734 5734 5733 5732 5731 5731 5730 5729 5728 5726 5725 5724 5722 5721 5719 5718 5717 5716 5714 5713 5712 5710
5773 5769 5766 5763 5759 5755 5753 5750 5747 5745 5744 5742 5741 5740 5739 5738 5738 5737 5736 5735 5735 5734 5733 5732 5731 5730 5729 5728 5727 5727 5726 5725 5724 5722 5721 5720 5718 5717 5716 5715 5713 5712 5711
5776 5772 5767 5764 5760 5757 5754 5750 5748 5745 5744 5742 5741 5740 5739 5738 5737 5736 5736 5735 5735 5734 5733 5732 5730 5729 5728 5727 5726 5725 5725 5724 5724 5723 5722 5720 5719 5718 5717 5715 5714 5713 5712
5777 5773 5768 5764 5761 5758 5754 5751 5747 5745 5744 5743 5741 5740 5739 5738 5737 5736 5736 5735 5734 5733 5732 5732 5730 5729 5727 5726 5726 5724 5724 5724 5723 5723 5722 5721 5720 5719 5718 5716 5715 5714 5713
5775 5772 5767 5763 5761 5757 5754 5750 5746 5744 5744 5743 5742 5741 5739 5739 5738 5737 5736 5735 5734 5733 5733 5732 5729 5727 5725 5725 5722 5719 5721 5723 5723 5723 5723 5722 5722 5721 5719 5718 5716 5715 5714
5776 5773 5769 5765 5762 5760 5757 5754 5750 5747 5746 5745 5743 5742 5741 5740 5739 5738 5737 5736 5735 5734 5732 5731 5729 5726 5725 5724 5721 5716 5713 5716 5721 5724 5723 5723 5723 5722 5721 5720 5718 5717 5716
5776 5774 5772 5767 5763 5761 5758 5753 5750 5746 5745 5743 5742 5742 5742 5742 5740 5739 5739 5737 5736 5735 5733 5731 5730 5727 5724 5723 5724 5719 5712 5710 5716 5721 5723 5724 5724 5723 5722 5721 5720 5719 5718
5778 5775 5771 5767 5763 5760 5757 5753 5749 5746 5743 5744 5745 5744 5743 5742 5741 5740 5739 5738 5736 5735 5733 5732 5731 5729 5726 5722 5721 5722 5721 5720 5715 5715 5720 5723 5724 5724 5723 5722 5722 5721 5720
5778 5774 5771 5767 5763 5761 5758 5754 5750 5747 5746 5746 5745 5744 5743 5742 5741 5741 5740 5738 5736 5735 5734 5732 5731 5729 5727 5724 5722 5721 5719 5718 5718 5715 5714 5718 5721 5724 5724 5724 5723 5722 5721
5776 5773 5770 5765 5762 5761 5758 5754 5751 5748 5746 5744 5743 5742 5741 5741 5741 5740 5739 5738 5737 5735 5734 5732 5731 5729 5728 5726 5725 5723 5721 5718 5717 5715 5714 5715 5717 5721 5723 5724 5723 5723 5722